Location: Lecco
(45.8566°N, 9.3977°E)
Time: 12:41:40
(UTC+02:00)

Explorer 11/Cluster Stage 4 - Pass Details

Date: 19 August 2020
Orbit: 467 x 1258 km, 28.8° (Epoch: 24 September)

Event Time Altitude Azimuth Distance (km) Brightness Sun altitude
Rises 00:55:59 0° 251° (WSW) 4,061 10.1 -31.1°
Enters shadow 00:56:20 - 249° (WSW) 3,984 10.1 -31.1°
Reaches altitude 10° 01:00:57 10° 224° (SW) 3,190 - -31.2°
Maximum altitude 01:03:56 12° 202° (SSW) 3,033 - -31.2°
Drops below altitude 10° 01:06:58 10° 180° (S) 3,226 - -31.3°
Sets 01:12:04 0° 154° (SSE) 4,156 - -31.4°
